sat.trackr.live / text

‹ back to catalog

STARLINK-30471

NORAD 57932 · 2023-147V

PAYLOAD ACTIVE UNKNOWN

§ Identity

Operator
Country
US
Launch date
2023-09-24
Launch site
AFETR
Launch vehicle
Mass (kg)
RCS (m²)

Purposes: comms

External: N2YO · Heavens-Above · Gunter

§ Orbital elements

Epoch: 2026-05-25T00:10:05.587104Z

Period
94.27 min
Inclination
43.0009°
Eccentricity
0.0001204
Mean motion
15.27576647 rev/d
Perigee alt
482.2 km
Apogee alt
483.9 km
Semi-major
6,861.2 km
B*
3.4609e-5
RAAN
253.8742°
Arg perigee
273.9545°
Mean anomaly
86.1169°
Rev number
14,827

§ Raw data

STARLINK-304711 57932U 23147V   26145.00700911  .00000690  00000+0  34609-4 0  99992 57932  43.0009 253.8742 0001204 273.9545  86.1169 15.27576647148270

JSON: /api/v1/satellites/57932 · /tle

For live sub-satellite position, see the globe view (requires WebGL).

§ Visibility from observer

Set your observer location to see the next 7 days of passes ≥ 10°. The values pass through the URL so the page stays shareable.

No JS? Fill the form by hand. The geolocation button needs JavaScript.